Regional Weather Roundup
Issued by NWS

Home | Current Version | Previous Version | Text Only | Print | Product List | Glossary Off
Versions: 1 2 3 4 5 6 7 8 9 10 11 12 13 14 15 16 17 18 19 20 21 22 23 24 25 26 27

000
ASUS45 KBOI 310410
RWRID

IDAHO REGIONAL WEATHER ROUNDUP
NATIONAL WEATHER SERVICE BOISE ID
1000 PM MDT MON MAY 30 2016

NOTE: "FAIR" INDICATES FEW OR NO CLOUDS BELOW 12000 FEET
WITH NO SIGNIFICANT WEATHER AND/OR OBSTRUCTIONS TO VISIBILITY

IDZ012-014-310500-
SOUTHWEST IDAHO


CITY           SKY/WX    TMP DP  RH WIND       PRES   REMARKS
BOISE          CLEAR     67  30  25 S3        30.07R
CALDWELL       CLEAR     68  34  28 W5        30.07R
MOUNTAIN HOME  CLEAR     67  34  29 W15       30.06R
$$

IDZ016-017-310500-
SOUTHCENTRAL IDAHO


CITY           SKY/WX    TMP DP  RH WIND       PRES   REMARKS
BURLEY         CLEAR     59  32  36 SW12      30.07R
JEROME         CLEAR     61  29  29 SW14      30.07R
TWIN FALLS     CLEAR     58  27  30 SW13      30.08S
$$

IDZ019>023-310500-
SOUTHEAST IDAHO


CITY           SKY/WX    TMP DP  RH WIND       PRES   REMARKS
IDAHO FALLS    PTCLDY    59  32  36 S9        30.08R
POCATELLO      CLEAR     61  27  27 SW14      30.08R
REXBURG        PTCLDY    60  28  29 E5        30.09R
$$

IDZ006-010-011-018-031-032-310500-
CENTRAL IDAHO MOUNTAINS


CITY           SKY/WX    TMP DP  RH WIND       PRES   REMARKS
MCCALL         CLEAR     55  28  35 N8        30.17R
HAILEY         CLEAR     54  36  50 NW5       30.10R
STANLEY          N/A     47  29  49 CALM      30.19R
SALMON         CLEAR     52  30  43 N6        30.11R
CHALLIS        CLEAR     58  24  27 N7        30.12R
$$

IDZ002-004-006-007-026-310500-
NORTHERN IDAHO


CITY           SKY/WX    TMP DP  RH WIND       PRES   REMARKS
LEWISTON       PTCLDY    67  33  28 NE3       30.14S
LOWELL           N/A     54  44  69 CALM      30.17R
COEUR D`ALENE  CLEAR     57  37  47 S3        30.13R
MULLAN PASS    CLEAR     43  28  55 VRB5      30.24S
$$




USA.gov is the U.S. government's official web portal to all federal, state and local government web resources and services.